FW7317 Weather Reports


Display with metric or nautical units.
time (UTC)temp
F
wind
direction
speed
MPH
gust
MPH
rain 1hr
in
rain 24hr
in
rain mn
in
humidity
%
barometer
mb
20260503215531 69 0 0.0 1.0 0.00 0.00 0.00 43 1015.9
20260503215031 69 0 0.0 1.0 0.00 0.00 0.00 46 1015.9
20260503214545 69 0 0.0 5.0 0.00 0.00 0.00 43 1016.0
20260503214034 69 0 0.0 5.0 0.00 0.00 0.00 41 1016.0
20260503213530 69 240 0.0 2.0 0.00 0.00 0.00 42 1016.1
20260503213048 70 0 0.0 1.0 0.00 0.00 0.00 41 1016.0
20260503212531 71 0 0.0 5.0 0.00 0.00 0.00 40 1016.0
20260503212031 71 0 0.0 5.0 0.00 0.00 0.00 40 1016.1
20260503211548 71 0 0.0 1.0 0.00 0.00 0.00 41 1016.2
20260503211031 71 0 0.0 1.0 0.00 0.00 0.00 41 1016.2
20260503210531 71 0 0.0 1.0 0.00 0.00 0.00 39 1016.2
20260503210053 71 0 0.0 1.0 0.00 0.00 0.00 41 1016.2
20260503205533 71 0 0.0 6.0 0.00 0.00 0.00 40 1016.3
20260503205033 71 0 0.0 6.0 0.00 0.00 0.00 41 1016.3
20260503204557 70 0 0.0 3.0 0.00 0.00 0.00 40 1016.2
20260503204030 70 0 0.0 4.0 0.00 0.00 0.00 42 1016.5
20260503203529 70 0 0.0 4.0 0.00 0.00 0.00 39 1016.6
20260503203041 70 0 0.0 5.0 0.00 0.00 0.00 40 1016.6
20260503202534 70 0 0.0 5.0 0.00 0.00 0.00 40 1016.7
20260503202031 70 0 0.0 1.0 0.00 0.00 0.00 43 1016.8
20260503201542 69 0 0.0 2.0 0.00 0.00 0.00 41 1016.9
20260503201031 69 0 0.0 2.0 0.00 0.00 0.00 44 1016.9
20260503200531 68 0 0.0 8.0 0.00 0.00 0.00 44 1017.0
20260503200046 68 0 0.0 8.0 0.00 0.00 0.00 43 1017.1
20260503195528 69 298 0.0 2.0 0.00 0.00 0.00 43 1017.1
20260503195032 68 0 0.0 0.0 0.00 0.00 0.00 46 1017.3
20260503194543 68 0 0.0 0.0 0.00 0.00 0.00 46 1017.4
20260503194031 68 0 0.0 1.0 0.00 0.00 0.00 44 1017.5
20260503193531 68 0 0.0 1.0 0.00 0.00 0.00 44 1017.6
20260503193044 68 0 0.0 1.0 0.00 0.00 0.00 45 1017.6
20260503192528 69 0 0.0 1.0 0.00 0.00 0.00 42 1017.6
20260503192202 69 0 0.0 7.0 0.00 0.00 0.00 43 1017.8
20260503191544 70 0 0.0 7.0 0.00 0.00 0.00 41 1017.9
20260503191032 70 0 0.0 7.0 0.00 0.00 0.00 41 1018.0
20260503190531 69 0 0.0 4.0 0.00 0.00 0.00 44 1018.1
20260503190046 69 0 0.0 4.0 0.00 0.00 0.00 43 1018.1
20260503185531 69 0 0.0 4.0 0.00 0.00 0.00 42 1018.2
20260503185032 68 0 0.0 2.0 0.00 0.00 0.00 43 1018.2
20260503184541 68 0 0.0 2.0 0.00 0.00 0.00 44 1018.3
20260503184032 68 90 0.0 3.0 0.00 0.00 0.00 43 1018.3
20260503183532 67 0 0.0 3.0 0.00 0.00 0.00 45 1018.5
20260503183052 67 0 0.0 3.0 0.00 0.00 0.00 45 1018.4
20260503182532 66 0 0.0 4.0 0.00 0.00 0.00 44 1018.5
20260503182036 66 0 0.0 4.0 0.00 0.00 0.00 44 1018.7
20260503181546 66 0 0.0 5.0 0.00 0.00 0.00 43 1018.6
20260503181032 66 0 0.0 5.0 0.00 0.00 0.00 43 1018.6
20260503180532 66 0 0.0 5.0 0.00 0.00 0.00 43 1018.8
20260503180056 66 0 0.0 1.0 0.00 0.00 0.00 44 1018.7
20260503175532 65 0 0.0 3.0 0.00 0.00 0.00 47 1018.8
20260503175032 66 0 0.0 3.0 0.00 0.00 0.00 43 1018.9
20260503174542 66 0 0.0 2.0 0.00 0.00 0.00 47 1019.0
20260503174036 65 0 0.0 7.0 0.00 0.00 0.00 47 1018.9
20260503173533 64 46 0.0 7.0 0.00 0.00 0.00 46 1019.1
20260503173136 64 0 0.0 4.0 0.00 0.00 0.00 47 1019.1
20260503172536 64 0 0.0 4.0 0.00 0.00 0.00 45 1019.3
20260503172031 64 0 0.0 4.0 0.00 0.00 0.00 46 1019.3
20260503171548 64 0 0.0 4.0 0.00 0.00 0.00 45 1019.4
20260503171029 63 0 0.0 4.0 0.00 0.00 0.00 47 1019.5
20260503170532 62 0 0.0 7.0 0.00 0.00 0.00 45 1019.6
20260503072531 43 186 0.0 2.0 0.00 0.00 0.00 80 1017.5
20260503072032 43 186 1.0 3.0 0.00 0.00 0.00 80 1017.4
20260503071543 43 186 1.0 3.0 0.00 0.00 0.00 81 1017.2
20260503071030 43 186 1.0 3.0 0.00 0.00 0.00 80 1017.1
20260503070534 43 187 1.0 3.0 0.00 0.00 0.00 80 1017.2
20260503055032 44 0 0.0 2.0 0.00 0.00 0.00 77 1017.3
20260503054541 45 187 0.0 2.0 0.00 0.00 0.00 77 1017.3
20260503054032 45 0 0.0 1.0 0.00 0.00 0.00 76 1017.2
20260503053535 45 0 0.0 1.0 0.00 0.00 0.00 76 1017.2
20260503053041 45 0 0.0 2.0 0.00 0.00 0.00 75 1017.3
20260503052534 45 0 0.0 2.0 0.00 0.00 0.00 75 1017.3
20260503052031 45 187 0.0 2.0 0.00 0.00 0.00 75 1017.3
20260503051544 46 0 0.0 1.0 0.00 0.00 0.00 74 1017.3
20260503051032 46 187 0.0 1.0 0.00 0.00 0.00 74 1017.3
20260503050533 46 0 0.0 1.0 0.00 0.00 0.00 74 1017.3
20260503050045 46 0 0.0 0.0 0.00 0.00 0.00 73 1017.3
20260503045529 46 0 0.0 1.0 0.00 0.00 0.00 73 1017.3
20260503045032 46 0 0.0 1.0 0.00 0.00 0.00 72 1017.1
20260503044543 46 0 0.0 1.0 0.00 0.00 0.00 72 1017.2
20260503044034 46 187 0.0 2.0 0.00 0.00 0.00 72 1017.2
20260503043533 47 187 0.0 2.0 0.00 0.00 0.00 70 1017.1
20260503043042 47 187 0.0 1.0 0.00 0.00 0.00 70 1017.1
20260503042532 47 0 0.0 1.0 0.00 0.00 0.00 70 1017.1
20260503042033 47 187 0.0 1.0 0.00 0.00 0.00 69 1017.1
20260503041543 48 0 0.0 1.0 0.00 0.00 0.00 68 1016.8
20260503041035 48 0 0.0 1.0 0.00 0.00 0.00 67 1016.9
20260503040534 48 0 0.0 1.0 0.00 0.00 0.00 66 1016.8
20260503040048 49 0 0.0 1.0 0.00 0.00 0.00 66 1016.8
20260503035533 49 0 0.0 2.0 0.00 0.00 0.00 65 1016.7
20260503035036 49 0 0.0 2.0 0.00 0.00 0.00 64 1016.6
20260503034545 49 0 0.0 2.0 0.00 0.00 0.00 62 1016.5
20260503034029 50 187 0.0 1.0 0.00 0.00 0.00 61 1016.5
20260503033531 50 0 0.0 1.0 0.00 0.00 0.00 60 1016.4
20260503033042 51 0 0.0 1.0 0.00 0.00 0.00 58 1016.3
20260503032531 52 0 0.0 1.0 0.00 0.00 0.00 58 1016.2
20260503032030 52 0 0.0 2.0 0.00 0.00 0.00 57 1016.1
20260503031550 53 0 0.0 2.0 0.00 0.00 0.00 55 1016.2
20260503031031 53 0 0.0 2.0 0.00 0.00 0.00 55 1016.1
20260503030531 53 0 0.0 2.0 0.00 0.00 0.00 53 1016.0
20260503030041 54 0 1.0 3.0 0.00 0.00 0.00 52 1016.0
20260503025533 54 0 1.0 4.0 0.00 0.00 0.00 54 1015.9
20260503025031 54 0 2.0 4.0 0.00 0.00 0.00 51 1015.6
20260503024548 54 187 1.0 3.0 0.00 0.00 0.00 52 1015.6
20260503024031 54 153 1.0 3.0 0.00 0.00 0.00 51 1015.5
20260503023531 55 0 1.0 2.0 0.00 0.00 0.00 51 1015.5
20260503023045 55 0 0.0 2.0 0.00 0.00 0.00 49 1015.4
20260503022530 55 0 0.0 5.0 0.00 0.00 0.00 49 1015.5
20260503022031 56 51 0.0 7.0 0.00 0.00 0.00 48 1015.5
20260503021547 56 84 2.0 7.0 0.00 0.00 0.00 48 1015.4
20260503021031 56 264 2.0 6.0 0.00 0.00 0.00 47 1015.2
20260503020531 56 170 1.0 4.0 0.00 0.00 0.00 47 1015.3
20260503020051 56 171 1.0 4.0 0.00 0.00 0.00 47 1015.3
20260503015532 56 171 1.0 7.0 0.00 0.00 0.00 46 1015.2
20260503015032 57 188 2.0 7.0 0.00 0.00 0.00 47 1015.0
20260503014544 57 170 2.0 8.0 0.00 0.00 0.00 46 1015.0
20260503014030 57 134 1.0 8.0 0.00 0.00 0.00 45 1014.9
20260503013532 57 242 1.0 7.0 0.00 0.00 0.00 45 1014.8
20260503013043 57 218 1.0 7.0 0.00 0.00 0.00 44 1014.8
20260503012530 57 52 2.0 7.0 0.00 0.00 0.00 44 1014.7
20260503012033 57 300 2.0 7.0 0.00 0.00 0.00 44 1014.8
20260503011557 57 87 1.0 6.0 0.00 0.00 0.00 45 1014.5
20260503011032 57 56 1.0 7.0 0.00 0.00 0.00 44 1014.4
20260503010530 58 271 2.0 7.0 0.00 0.00 0.00 43 1014.5
20260503010051 58 117 1.0 5.0 0.00 0.00 0.00 43 1014.4
20260503005532 58 202 1.0 7.0 0.00 0.00 0.00 44 1014.3
20260503005034 58 82 2.0 11.0 0.00 0.00 0.00 42 1014.3
20260503004609 58 250 3.0 11.0 0.00 0.00 0.00 43 1014.2
20260503004031 58 63 3.0 11.0 0.00 0.00 0.00 41 1014.1
20260503003530 58 0 2.0 10.0 0.00 0.00 0.00 42 1014.1
20260503003048 59 0 2.0 8.0 0.00 0.00 0.00 42 1014.0
20260503002534 59 184 1.0 9.0 0.00 0.00 0.00 41 1013.9
20260503002033 59 242 2.0 9.0 0.00 0.00 0.00 41 1013.8
20260503001549 59 194 3.0 9.0 0.00 0.00 0.00 42 1013.7
20260503001030 59 233 3.0 8.0 0.00 0.00 0.00 42 1013.5
20260503000533 59 171 0.0 8.0 0.00 0.00 0.00 43 1013.5
20260503000058 59 192 1.0 9.0 0.00 0.00 0.00 42 1013.3
20260502235529 59 269 2.0 9.0 0.00 0.00 0.00 42 1013.4
20260502235029 59 76 2.0 8.0 0.00 0.00 0.00 41 1013.2
20260502234547 59 35 2.0 8.0 0.00 0.00 0.00 41 1013.1
20260502234032 60 60 1.0 6.0 0.00 0.00 0.00 40 1012.9
20260502233534 60 136 1.0 10.0 0.00 0.00 0.00 40 1013.0
20260502233045 60 127 1.0 10.0 0.00 0.00 0.00 40 1013.0
20260502232536 61 0 2.0 10.0 0.00 0.00 0.00 39 1012.9
20260502232030 61 36 3.0 8.0 0.00 0.00 0.00 38 1012.8
20260502231603 61 235 2.0 8.0 0.00 0.00 0.00 39 1012.7
20260502231030 61 63 1.0 11.0 0.00 0.00 0.00 38 1012.7
20260502230532 61 304 2.0 11.0 0.00 0.00 0.00 40 1012.6
20260502230044 62 73 3.0 12.0 0.00 0.00 0.00 39 1012.6
20260502225529 62 0 2.0 12.0 0.00 0.00 0.00 39 1012.5
20260502225031 62 360 4.0 16.0 0.00 0.00 0.00 39 1012.5
20260502224549 62 0 2.0 16.0 0.00 0.00 0.00 41 1012.4
20260502224029 62 0 1.0 10.0 0.00 0.00 0.00 40 1012.4
20260502223530 62 0 1.0 10.0 0.00 0.00 0.00 40 1012.4
20260502223048 63 0 1.0 10.0 0.00 0.00 0.00 40 1012.4
20260502222531 63 0 2.0 10.0 0.00 0.00 0.00 39 1012.3
20260502222031 63 0 1.0 7.0 0.00 0.00 0.00 40 1012.1
20260502221553 62 26 2.0 7.0 0.00 0.00 0.00 39 1012.2
20260502221029 62 0 3.0 7.0 0.00 0.00 0.00 39 1012.1
20260502220529 63 0 0.0 7.0 0.00 0.00 0.00 41 1012.0
20260502220051 63 0 1.0 7.0 0.00 0.00 0.00 40 1011.9